Location: Huntsville
(34.7300°N, 86.5860°W)
Time: 07:10:46
(UTC-05:00)

ISS - Visible Passes

Search period start: 22 May 2019 00:00
Search period end: 01 June 2019 00:00
Orbit: 407 x 410 km, 51.6° (Epoch: 22 May)

Date Brightness Start Highest point End Pass type
(mag) Time Alt. Az. Time Alt. Az. Time Alt. Az.
22 May -1.1 20:14:55 10° W 20:17:39 24° NW 20:20:24 10° NNE visible
28 May -0.5 23:16:46 10° NNW 23:17:24 13° N 23:17:24 13° N visible
29 May -0.9 22:26:36 10° N 22:27:59 12° NNE 22:28:07 12° NNE visible
30 May -0.7 23:10:48 10° NW 23:11:35 16° NNW 23:11:35 16° NNW visible
31 May -1.7 22:20:08 10° NNW 22:22:22 23° NNE 22:22:22 23° NNE visible
